Regional Weather Roundup
Issued by NWS

Home | Current Version | Previous Version | Text Only | Print | Product List | Glossary On
Versions: 1 2 3 4 5 6 7 8 9 10 11 12 13 14 15 16 17 18 19 20 21 22 23 24 25 26 27 28 29 30 31 32 33 34 35 36 37 38 39 40 41 42 43 44 45 46 47 48 49 50
000
ASUS42 KKEY 221910
RWRKEY

FLORIDA REGIONAL WEATHER ROUNDUP FOR THE FLORIDA KEYS
NATIONAL WEATHER SERVICE KEY WEST FLORIDA
300 PM EDT FRI AUG 22 2014

...SOUTH FLORIDA AND THE KEYS...

CITY           SKY/WX    TMP DP  RH WIND       PRES   REMARKS
FORT MYERS     PTSUNNY   95  70  44 NW6       30.01F HX 101
SW REGIONAL AP PTSUNNY   94  70  45 CALM      30.02F HX 100
NAPLES         MOSUNNY   92  76  59 W10       30.02F HX 104
MIAMI          PTSUNNY   86  75  69 NW6       30.05S THUNDER HX  95
WEST KENDALL   CLOUDY    89  71  55 N10       30.04F HX  95
HOMESTEAD      MOSUNNY   90  76  64 NE8       30.03F HX 101
MARATHON       SUNNY     92  72  51 E7        30.02F HX  99
BOCA CHICA NAS MOSUNNY   92  70  48 SE10      30.02F HX  97
KEY WEST INTL  PTSUNNY   89  74  60 SE9       30.03F HX  98

...INTERNATIONAL WEATHER...

CITY           SKY/WX    TMP DP  RH WIND       PRES   REMARKS
NASSAU BAHAMAS MOSUNNY   88  75  66 NE10      30.03F THUNDER HX  97
CANCUN MEXICO  PTSUNNY   90  77  66 SE10      29.99F HX 102
COZUMEL MEXICO PTSUNNY   86  77  74 NE16      29.98F HX  97

ADJACENT COASTAL WATERS...

STATION/POSITION TIME  SKY/WX   TEMP    WIND        PRES    WAVE
                                AIR SEA DIR/SP/G            HT/PER
                 (UTC)          (F)     (DEG/KT/KT) (MB)    (FT/S)
PULASKI SHOAL LI 1900            84      90/ 10/ 14 1016.9F
SAND KEY         1900            84      10/  9/ 11 1016.6F
SOMBRERO KEY     1900            87      70/  7/  8 1017.5F
LONG KEY         1800            87 91   90/  6/  7 1018.2F
MOLASSES REEF    1900            85 88   80/  9/ 10 1016.9F
FOWEY ROCKS      1900            85 89   80/  6/  6 1017.5F
Buoy 42080       NOT AVBL

$$


USA.gov is the U.S. government's official web portal to all federal, state and local government web resources and services.